Location: Beugnon
(47.6222°N, 3.7850°E)
Time: 08:36:58
(UTC+00:00)

Daily predictions for brighter satellites

Satellite Brightness Start Highest point End
(mag) Time Altitude Azimuth Time Altitude Azimuth Time Altitude Azimuth
ARGOS Delta rocket 4.2 18:46:53 10° SSE 18:52:14 80° ENE 18:57:45 10° N
IRIDIUM 114 4.3 18:49:37 10° N 18:54:53 74° E 19:00:05 10° S
STARLINK-1237 4.5 18:51:07 10° WNW 18:55:06 43° N 18:59:04 10° E
Cosmos 2058 Rocket 3.9 18:55:33 10° SSE 18:59:28 30° E 19:03:23 10° NNE
STARLINK-1202 4.4 18:56:08 10° WNW 19:00:07 44° NNE 19:04:07 10° E
Cosmos 1726 Rocket 3.8 18:57:48 10° SSE 19:02:02 47° E 19:06:19 10° NNE
STARLINK-1228 2.7 18:59:36 10° WNW 19:02:33 75° NNE 19:05:30 10° ESE
Cosmos 1461 3.2 18:58:10 10° NNW 19:02:42 68° NE 19:07:20 10° SE
SL-08 RB Rocket 4.2 18:58:35 10° SE 19:02:54 43° ENE 19:07:17 10° N
IRIDIUM 103 4.4 18:58:48 10° N 19:04:04 88° E 19:09:18 10° S
Cosmos 921 Rocket 3.6 19:01:22 10° N 19:05:18 37° ENE 19:09:13 10° SE
Cosmos 1703 3.3 19:01:57 10° N 19:05:54 67° ENE 19:09:51 10° SSE
SL-4 R/B 1.6 19:02:46 10° WSW 19:06:10 78° NNW 19:09:37 10° ENE
Cosmos 1726 2.3 19:02:57 10° SSW 19:06:40 78° W 19:10:26 10° N
Cosmos 1437 3.5 19:05:11 10° NNW 19:08:08 50° W 19:11:03 10° S
CZ-4C R/B 4.3 19:03:17 10° NW 19:08:25 24° NNE 19:14:13 10° ENE
Cosmos 2184 Rocket 4.1 19:02:05 10° N 19:08:25 88° E 19:14:37 10° S
Meteor 2-10 4.3 19:03:05 10° S 19:08:37 86° WNW 19:14:20 10° N
ADEOS Rocket 4.0 19:02:56 10° N 19:09:03 52° WNW 19:14:37 10° SW
Cosmos 1825 Rocket 3.6 19:04:51 10° N 19:09:16 85° W 19:13:36 10° S
Cosmos 407 Rocket 3.5 19:05:01 10° S 19:10:00 55° ESE 19:15:01 10° NNE
STARLINK-1246 4.3 19:06:06 10° WNW 19:10:07 47° NNE 19:14:08 10° E
Cosmos 1908 3.3 19:06:39 10° S 19:10:26 56° E 19:14:17 10° NNE
Cosmos 1340 Rocket 3.4 19:07:11 10° SSE 19:10:55 37° E 19:14:39 10° NNE
STARLINK-1201 3.2 19:08:21 10° WNW 19:11:36 62° NNE 19:14:33 12° ESE
FREGAT/IRIS 2.2 19:08:54 10° SSE 19:11:37 76° ENE 19:14:20 10° N
Cosmos 1656 Rocket 4.1 19:06:26 10° NNW 19:12:02 66° WSW 19:17:33 10° SSE
Cosmos 1328 3.8 19:08:35 10° N 19:12:37 77° E 19:16:37 10° SSE
Cosmos 2228 3.0 19:08:37 10° S 19:12:54 72° E 19:17:15 10° NNE
STARLINK-1224 4.3 19:11:07 10° WNW 19:15:09 48° NNE 19:19:04 11° E
Cosmos 1943 3.8 19:11:20 10° SW 19:16:57 63° WNW 19:22:38 10° NNE
STARLINK-1203 4.2 19:13:15 10° WNW 19:17:22 52° NNE 19:21:13 12° E
MOS 1 4.3 19:13:17 10° SSE 19:18:56 85° ENE 19:24:39 10° NNW
MetOp-A 4.4 19:14:42 10° SE 19:19:50 50° ENE 19:25:00 10° N
STARLINK-1225 4.2 19:16:06 10° WNW 19:20:10 50° NNE 19:23:51 12° E
Resurs 01 Rocket 2.6 19:17:43 11° SE 19:21:17 29° ENE 19:25:06 10° N
STARLINK-52 3.2 19:19:25 10° SW 19:22:31 48° SE 19:25:38 10° ENE
MOS 1 Rocket 4.3 19:17:48 10° NNE 19:22:42 34° E 19:27:36 10° SSE
CZ-2C R/B 3.3 19:19:28 10° NNE 19:24:02 31° E 19:28:37 10° SSE
STARLINK-1230 4.1 19:21:04 10° WNW 19:25:09 52° NNE 19:28:37 14° E
Nadezhda 1 Rocket 4.0 19:18:52 10° S 19:25:14 74° E 19:31:34 10° NNE
BREEZE M DEB (TANK) 3.6 19:22:51 10° S 19:25:36 27° SE 19:31:24 10° ENE
Cosmos 1697 Rocket 4.5 19:25:00 10° N 19:28:48 18° NE 19:32:36 10° E
SPOT 3 Rocket 3.6 19:23:46 10° SSE 19:28:54 62° ENE 19:34:02 10° N
Cosmos 1023 Rocket 4.5 19:23:51 10° S 19:28:56 61° ESE 19:34:00 10° NNE
SL-24 R/B - RUBIN 2 4.3 19:23:42 10° SSW 19:29:19 79° SE 19:35:41 10° NE
STARLINK-1243 4.1 19:26:02 10° WNW 19:30:08 54° NNE 19:33:24 15° E
ARGOS 3.3 19:24:58 10° SSE 19:30:21 81° WSW 19:35:46 10° NNW
FALCON 9 DEB 3.2 19:27:24 10° SW 19:30:50 59° SSE 19:34:17 10° ENE
Cosmos 2154 Rocket 4.0 19:25:02 10° N 19:31:26 85° E 19:37:45 10° S
Cosmos 1953 Rocket 3.9 19:27:51 10° NNW 19:32:20 73° W 19:36:48 10° S
Cosmos 1606 Rocket 4.0 19:28:12 10° SSW 19:32:37 68° WNW 19:37:06 10° N
GEOS 3 Rocket 4.4 19:28:47 10° SSE 19:33:44 48° WSW 19:38:48 10° NW
NOSS 3-4 (A) 4.2 19:27:18 10° NW 19:34:15 68° SW 19:41:54 10° SSE
NOSS 3-4 (C) 4.2 19:27:24 10° NW 19:34:21 69° SW 19:42:01 10° SSE
STARLINK-1236 4.0 19:31:02 10° WNW 19:35:07 57° NNE 19:38:11 17° E
Cosmos 1954 Rocket 4.3 19:30:17 10° S 19:35:15 45° ESE 19:40:13 10° NNE
USA 186 2.7 19:32:44 10° S 19:35:54 48° W 19:38:56 10° NNW
STARLINK-67 3.8 19:35:40 10° WNW 19:37:59 30° SW 19:39:24 18° SSE
Meteor 1-11 4.4 19:36:45 10° NNW 19:42:31 78° W 19:48:10 10° S
STARLINK-1269 3.9 19:40:59 10° WNW 19:45:06 62° NNE 19:47:44 21° E
Cosmos 1763 Rocket 4.4 19:44:12 10° N 19:48:52 32° ENE 19:51:29 20° ESE
STARLINK-1200 3.8 19:45:57 10° WNW 19:50:05 65° NNE 19:52:31 23° E
STARLINK-1234 3.5 19:51:33 10° WNW 19:54:34 45° SW 19:55:47 28° SSE
STARLINK-1209 3.7 19:52:02 10° WNW 19:55:01 42° SW 19:56:15 27° SSE
STARLINK-1192 3.7 19:50:56 10° WNW 19:55:04 69° NNE 19:57:18 26° ESE
Cosmos 1455 4.4 19:56:32 12° ENE 19:56:32 12° ENE 19:57:15 10° NE
STARLINK-1233 3.1 19:52:22 10° WNW 19:55:29 60° SSW 19:56:38 33° SSE
STARLINK-1212 3.1 19:52:51 10° WNW 19:55:56 59° SSW 19:57:04 33° SSE
STARLINK-1105 3.1 19:53:16 10° WNW 19:56:23 59° SSW 19:57:31 33° SSE
STARLINK-1206 3.1 19:53:45 10° WNW 19:56:50 58° SSW 19:57:55 34° SSE
SeaSat 1 4.1 19:52:47 10° NNE 19:57:17 36° NW 20:01:46 10° WSW
STARLINK-1247 3.1 19:54:13 10° WNW 19:57:18 57° SSW 19:58:22 34° SSE
STARLINK-1227 3.2 19:54:37 10° WNW 19:57:43 57° SSW 19:58:47 34° SSE
Iridium 4 Rocket 3.9 19:54:28 10° NNE 19:58:09 29° E 19:59:06 26° ESE
STARLINK-1218 3.2 19:55:07 10° WNW 19:58:11 56° SSW 19:59:13 35° SSE
STARLINK-1226 3.2 19:55:33 10° WNW 19:58:38 56° SSW 19:59:40 35° SSE
Cosmos 1980 Rocket 4.1 19:55:19 10° N 19:58:57 17° NE 20:02:02 12° ENE
STARLINK-1254 3.2 19:55:59 10° WNW 19:59:04 56° SSW 20:00:06 35° SSE
STARLINK-1215 3.2 19:56:28 10° WNW 19:59:33 55° SSW 20:00:32 35° SSE
STARLINK-1231 3.2 19:56:56 10° WNW 19:59:59 54° SSW 20:00:58 36° SSE
STARLINK-1244 3.7 19:56:00 10° WNW 20:00:09 72° NNE 20:02:10 29° ESE
Cosmos 1174 4.4 19:56:10 10° NNW 20:00:11 54° NE 20:02:39 27° ESE
USA 234 4.0 19:54:49 10° ENE 20:00:20 28° SE 20:05:49 10° S
STARLINK-1232 3.2 19:57:50 10° WNW 20:00:54 53° SSW 20:01:50 36° SSE
STARLINK-1217 3.3 19:58:17 10° WNW 20:01:20 53° SW 20:02:16 36° SSE
Cosmos 1892 3.6 19:57:59 10° N 20:01:29 30° ENE 20:02:13 28° E
Abrixas rocket 2.6 19:58:41 10° W 20:01:30 41° SSW 20:02:07 35° S
STARLINK-1208 3.3 19:58:42 10° WNW 20:01:46 53° SW 20:02:43 36° SSE
STARLINK-1229 3.3 19:59:11 10° WNW 20:02:14 52° SW 20:03:07 37° SSE
STARLINK-1271 3.3 19:59:39 10° WNW 20:02:41 51° SW 20:03:34 37° SSE
STARLINK-1270 3.3 20:00:06 10° WNW 20:03:08 51° SW 20:04:00 37° SSE
STARLINK-1154 3.3 20:00:33 10° WNW 20:03:36 51° SW 20:04:26 37° SSE
H-2A R/B 3.6 19:59:18 10° SSW 20:04:00 35° W 20:08:38 10° NNW
STARLINK-1197 3.3 20:01:27 10° WNW 20:04:30 50° SW 20:05:18 37° SSE
ATLAS 5 CENTAUR R/B 2.0 20:00:32 10° SW 20:04:42 63° NW 20:09:26 10° NE
STARLINK-1189 3.4 20:01:53 10° WNW 20:04:56 49° SW 20:05:43 37° SSE
STARLINK-1138 3.6 20:00:54 10° WNW 20:05:03 76° NNE 20:06:52 32° ESE
STARLINK-1198 3.4 20:02:22 10° WNW 20:05:24 49° SW 20:06:10 38° SSE
STARLINK-1188 3.4 20:02:48 10° WNW 20:05:49 48° SW 20:06:35 38° S
Cosmos 1825 4.2 20:03:38 10° NNE 20:05:39 15° ENE 20:05:39 15° ENE
ATLAS 2AS CENTAUR R/B 3.8 19:59:12 10° NW 20:06:11 42° WSW 20:12:36 10° S
STARLINK-1235 3.8 20:03:30 10° WNW 20:06:28 38° SW 20:07:18 31° S
STARLINK-1187 3.6 20:03:53 10° WNW 20:06:55 42° SW 20:07:42 34° S
STARLINK-1199 3.5 20:04:45 10° WNW 20:07:47 47° SW 20:08:31 38° S
STARLINK-1191 3.5 20:05:12 10° WNW 20:08:14 46° SW 20:08:56 38° S
STARLINK-1210 3.5 20:05:39 10° WNW 20:08:41 46° SW 20:09:23 38° S
STARLINK-1221 3.5 20:06:06 10° WNW 20:09:09 46° SW 20:09:49 38° S
COSMOS 2455 3.2 20:03:29 10° NW 20:09:28 64° WSW 20:13:56 18° SSE
STARLINK-1219 3.5 20:06:34 10° WNW 20:09:36 45° SW 20:10:15 38° S
STARLINK-1222 3.5 20:07:01 10° WNW 20:10:02 45° SW 20:10:40 38° S
STARLINK-1143 3.6 20:05:52 10° WNW 20:10:02 81° NNE 20:11:39 36° ESE
STARLINK-1211 3.5 20:07:29 10° WNW 20:10:30 44° SW 20:11:07 38° S
STARLINK-1214 3.5 20:07:55 10° WNW 20:10:56 44° SW 20:11:33 38° S
STARLINK-1245 3.5 20:08:24 10° WNW 20:11:24 43° SW 20:11:57 38° S
STARLINK-1238 3.6 20:08:49 10° WNW 20:11:50 43° SW 20:12:25 38° S
Cosmos 1140 Rocket 4.0 20:06:59 10° SW 20:12:07 62° WNW 20:17:15 10° NNE
STARLINK-1205 3.6 20:09:45 10° WNW 20:12:45 42° SW 20:13:16 38° S
STARLINK-1204 3.6 20:10:13 10° WNW 20:13:12 42° SW 20:13:42 38° S
ERBS 2.3 20:10:15 10° NW 20:13:38 72° NE 20:14:20 51° E
STARLINK-1241 3.5 20:10:53 10° WNW 20:15:04 85° NNE 20:16:28 40° ESE
STARLINK-29 3.4 20:15:05 10° WSW 20:18:15 59° NNW 20:19:44 28° NE
STARLINK-1239 3.5 20:15:51 10° WNW 20:20:01 90° SSW 20:21:14 45° ESE
IGS 5A 4.1 20:20:27 35° E 20:21:04 37° ENE 20:24:55 10° N
SAR-Lupe-2 3.6 20:17:35 10° NNE 20:21:06 52° E 20:21:15 52° ESE
ATLAS CENTAUR R/B 2.8 20:18:09 10° NNW 20:21:16 22° NE 20:22:10 20° ENE
Cosmos 1300 3.1 20:18:35 10° SSW 20:22:23 64° WNW 20:26:11 10° N
Resurs 1-3 4.3 20:18:55 14° S 20:22:31 51° W 20:26:49 10° NNW
Spot 2 Rocket 3.5 20:22:15 34° SE 20:24:23 63° ENE 20:29:26 10° N
STARLINK-1240 3.5 20:20:50 10° WNW 20:25:00 85° SSW 20:26:01 50° SE
STARLINK-60 4.3 20:23:06 10° W 20:26:13 38° NNW 20:27:47 23° NE
Cosmos 1850 Rocket 4.1 20:24:22 25° S 20:27:10 52° ESE 20:32:12 10° NNE
Cosmos 841 Rocket 4.2 20:23:12 10° N 20:28:09 38° ENE 20:29:32 32° E
In-Cosmos 22 Rocket 4.2 20:23:33 10° N 20:29:26 88° E 20:32:45 27° S
STARLINK-1216 3.5 20:25:48 10° WNW 20:29:57 80° SSW 20:30:47 55° SE
Terra 3.2 20:29:53 23° ENE 20:30:23 23° ENE 20:34:08 10° N
Cosmos 2082 Rocket 4.2 20:34:09 13° ENE 20:34:09 13° ENE 20:35:05 10° ENE
SPOT 5 3.7 20:31:40 28° ENE 20:31:51 28° ENE 20:35:33 10° N
Meteor 2-10 Rocket 4.0 20:33:51 37° ESE 20:34:18 38° E 20:39:18 10° NNE
MetOp-B 4.1 20:32:14 32° SSE 20:34:49 87° ENE 20:40:13 10° NNW
STARLINK-1237 3.5 20:30:46 10° WNW 20:34:55 75° SSW 20:35:33 60° SSE
Cosmos 1833 Rocket 3.7 20:39:02 28° E 20:39:02 28° E 20:42:38 10° NE
CARTOSAT-1 4.3 20:39:31 35° ENE 20:39:34 35° ENE 20:43:30 10° N
STARLINK-1202 3.5 20:35:46 10° WNW 20:39:55 70° SSW 20:40:21 63° SSE
Cosmos 468 Rocket 3.9 20:35:36 10° NNW 20:40:48 87° WSW 20:42:30 43° SSE
Cosmos 192 4.5 20:36:35 10° NNW 20:41:32 70° WSW 20:43:22 38° S
SL-4 R/B 2.6 20:42:45 10° WNW 20:46:01 41° N 20:46:33 38° NNE
Cosmos 1408 3.1 20:43:56 10° N 20:46:55 48° NE 20:46:55 48° NE
ERS-1 Rocket 3.2 20:47:01 47° E 20:47:47 52° ENE 20:52:39 10° N
STARLINK-1246 3.7 20:45:44 10° WNW 20:49:50 61° SW 20:49:54 60° SSW
RESURS DK-1 2.4 20:46:04 10° NNW 20:50:13 62° ENE 20:50:15 62° ENE
Cosmos 1766 Rocket 4.1 20:48:48 10° N 20:52:50 44° ENE 20:52:50 44° ENE
BREEZE M DEB (TANK) 2.7 20:46:25 10° WSW 20:53:10 84° NNW 20:53:25 75° NE
Cosmos 1570 Rocket 4.0 20:48:07 10° NNW 20:53:30 71° ENE 20:54:32 56° SE
Okean 3 Rocket 3.7 20:50:19 10° N 20:54:34 56° ENE 20:54:34 56° ENE
STARLINK-1224 3.9 20:50:45 10° WNW 20:54:43 56° SW 20:54:43 56° SW
Meteor 2-12 Rocket 4.4 20:48:52 10° N 20:55:00 84° W 20:57:31 38° S
Cosmos 2058 3.5 20:52:27 10° NNW 20:56:28 52° W 20:57:24 42° SW
STARLINK-1203 4.1 20:53:08 10° WNW 20:57:04 50° SW 20:57:04 50° SW
COSMOS 2406 3.1 20:54:52 33° S 20:57:26 70° ESE 21:03:08 10° NNE
Resurs 01 Rocket 3.1 20:55:17 19° SSW 20:57:41 33° W 21:01:42 10° NNW
CZ-4C R/B 3.3 20:51:49 10° NW 20:58:34 51° NE 21:01:49 33° E
STARLINK-52 4.3 20:55:40 10° W 20:58:27 39° NNW 20:58:27 39° NNW
STARLINK-1225 4.1 20:55:46 10° WNW 20:59:30 51° SW 20:59:30 51° SW
Cosmos 2218 Rocket 4.5 20:57:18 10° NNW 21:03:23 57° W 21:07:06 24° SSW
CZ-2C R/B 3.8 20:59:37 10° N 21:04:26 40° WNW 21:09:15 10° SW
Cosmos 1812 Rocket 4.4 21:02:25 26° SW 21:04:34 48° WNW 21:08:48 10° N
STARLINK-1230 4.3 21:00:44 10° WNW 21:04:16 46° WSW 21:04:16 46° WSW
Cosmos 2151 3.0 21:03:43 10° N 21:07:34 74° N 21:07:34 74° N
FALCON 9 DEB 4.4 21:04:41 10° W 21:07:53 40° NNW 21:07:53 40° NNW
STARLINK-1243 4.5 21:05:44 10° WNW 21:09:03 41° WSW 21:09:03 41° WSW
Cosmos 1697 Rocket 2.6 21:08:04 10° NNW 21:13:47 76° ENE 21:14:29 66° ESE
Cosmos 2369 3.6 21:08:14 10° NNW 21:13:54 74° ENE 21:14:34 66° ESE
Landsat 7 4.4 21:25:10 47° WSW 21:25:44 49° W 21:30:22 10° NNW
Cosmos 1455 3.4 21:31:25 40° NNW 21:31:25 40° NNW 21:34:17 10° N
Cosmos 1763 Rocket 4.3 21:25:58 10° NW 21:30:45 39° WSW 21:31:31 37° SW
SPOT 1/Viking Rocket 4.0 21:30:44 49° SW 21:31:30 54° W 21:36:38 10° NNW
Cosmos 1656 4.2 21:26:35 10° NW 21:32:02 48° WSW 21:32:50 45° SW
Cosmos 1408 Rocket 4.3 21:28:00 10° N 21:31:22 48° NNE 21:31:22 48° NNE
Cosmos 540 Rocket 3.5 21:29:16 10° NNW 21:34:20 73° W 21:34:20 73° W
SL-16 R/B 3.6 21:30:45 10° N 21:35:26 25° NE 21:36:11 25° ENE
Cosmos 2360 Rocket 4.4 21:32:26 10° N 21:35:32 15° NE 21:37:32 13° ENE
Cosmos 2208 Rocket 4.2 21:30:49 10° NNW 21:35:59 63° WSW 21:36:03 63° WSW
Cosmos 1825 3.8 21:38:01 10° NNW 21:40:28 33° NW 21:40:28 33° NW
Cosmos 2322 Rocket 3.7 21:37:49 10° N 21:42:22 24° NE 21:43:04 24° ENE
Nadezhda 3 Rocket 4.0 21:41:26 59° SSW 21:42:42 79° W 21:49:00 10° N
USA 234 3.1 21:37:19 10° NE 21:43:55 86° SE 21:50:29 10° SW
Cosmos 1980 Rocket 2.2 21:38:21 10° NNW 21:43:48 72° NE 21:43:48 72° NE
Cosmos-2242 4.0 21:45:30 43° WNW 21:45:30 43° WNW 21:49:26 10° N
Cosmos 1814 Rocket 4.3 21:40:58 10° NNW 21:46:08 61° W 21:46:08 61° W
Cosmos 1535 Rocket 4.3 21:40:39 10° N 21:46:52 78° E 21:46:59 77° E
ASTEX 1 3.9 21:50:00 56° NNE 21:50:00 56° NNE 21:53:58 10° N
ATLAS 5 CENTAUR R/B 4.4 21:47:09 10° WNW 21:50:22 19° NNW 21:53:55 10° NNE
Meteor 2-3 Rocket 3.7 21:49:51 10° NNW 21:55:21 80° NW 21:55:21 80° NW
ATLAS CENTAUR R/B 3.4 21:56:43 10° NW 21:58:21 23° NW 21:58:21 23° NW
Mayak 0.7 22:03:17 10° NNE 22:04:58 24° NNE 22:04:58 24° NNE
Terra 2.8 22:08:45 43° WNW 22:08:45 43° WNW 22:12:28 10° NNW
SPOT 5 4.3 22:10:53 28° WNW 22:10:53 28° WNW 22:13:47 10° NNW
Cosmos 1934 Rocket 4.0 22:05:14 10° NNW 22:11:27 71° W 22:11:27 71° W
Cosmos 2082 Rocket 2.6 22:15:56 59° N 22:15:56 59° N 22:20:34 10° NNE
Cosmos 2278 4.2 22:09:35 10° NW 22:14:24 52° W 22:14:24 52° W
Cosmos 1833 Rocket 3.4 22:20:38 45° W 22:21:28 49° NW 22:26:57 10° NNE
Cosmos 1605 Rocket 4.1 22:23:44 10° NNW 22:29:21 71° NW 22:29:21 71° NW
Cosmos 2344 4.3 22:25:56 10° NW 22:35:33 81° SW 22:38:35 58° SSE
CZ-4C R/B 3.3 22:40:20 10° NW 22:46:59 53° WSW 22:46:59 53° WSW
Cosmos 1607 4.5 23:12:04 54° NW 23:12:04 54° NW 23:17:55 10° NNE
SL-16 R/B 3.3 23:14:25 10° NNW 23:18:02 40° NW 23:18:02 40° NW
Cosmos 2360 Rocket 3.1 23:15:13 10° NNW 23:19:17 44° N 23:19:17 44° N
USA 234 4.1 23:20:27 10° NE 23:26:38 47° NNW 23:32:51 10° W
Cosmos 2322 Rocket 3.3 23:21:22 10° NNW 23:24:52 39° NW 23:24:52 39° NW
Cosmos 1980 Rocket 4.3 23:23:29 10° NW 23:25:34 17° WNW 23:25:34 17° WNW
Cosmos 2061 Rocket 4.4 23:25:50 10° N 23:30:49 59° N 23:30:49 59° N
MOS 1-B Rocket 4.4 23:34:58 10° NNE 23:40:21 67° NNE 23:40:21 67° NNE
Mayak 1.7 23:40:43 10° NW 23:41:32 12° NW 23:41:32 12° NW
Cosmos 2333 Rocket 3.4 23:37:46 10° NNW 23:42:26 37° NE 23:42:26 37° NE
SL-16 R/B 4.3 23:48:42 21° E 23:50:28 23° NE 23:55:11 10° N
